Location: Houhaj�rvi
(61.2833°N, 23.0000°E)
Time: 20:26:03
(UTC+00:00)

USA 238 DEB - Pass Details

Date: 27 February 2020
Orbit: 1018 x 1194 km, 63.4° (Epoch: 31 March)

Event Time Altitude Azimuth Distance (km) Brightness Sun altitude
Rises 18:06:26 0° 302° (WNW) 3,907 8.1 -17.5°
Reaches altitude 10° 18:09:07 10° 298° (WNW) 2,973 7.2 -17.8°
Maximum altitude 18:15:54 50° 226° (SW) 1,418 4.5 -18.6°
Enters shadow 18:21:53 15° 156° (SSE) 2,729 5.4 -19.3°
